Date,TemperatureHighF,TemperatureAvgF,TemperatureLowF,DewpointHighF,DewpointAvgF,DewpointLowF,HumidityHigh,HumidityAvg,HumidityLow,PressureMaxIn,PressureMinIn,WindSpeedMaxMPH,WindSpeedAvgMPH,GustSpeedMaxMPH,PrecipitationSumIn
2013-1-1,51.6,45.8,42.3,41.4,31.3,16.3,84,58,32,30.03,29.85,10,0,10,0.24
2013-1-2,54.5,41.6,35.2,37.8,31.6,22.4,87,69,46,30.14,29.90,14,2,14,0.02
2013-1-3,49.3,37.3,32.2,32.8,25.2,18.7,77,62,42,30.19,30.10,7,0,7,0.00
2013-1-4,50.7,36.1,28.6,25.4,20.2,17.9,65,53,33,30.24,30.13,17,2,17,0.00
2013-1-5,59.0,41.3,28.9,28.7,22.5,17.8,65,49,27,30.33,30.15,13,1,13,0.00
2013-1-6,56.1,44.0,36.9,34.7,30.7,27.5,76,60,42,30.16,30.01,17,1,17,0.02
2013-1-7,58.8,41.8,30.9,30.8,25.9,21.8,70,55,31,30.39,30.12,18,2,18,0.00
2013-1-8,60.1,40.6,25.9,38.7,29.9,20.6,84,67,45,30.41,30.29,10,0,10,0.00
2013-1-9,65.5,49.6,31.8,51.2,41.0,27.5,88,73,59,30.38,30.29,9,0,9,0.00
2013-1-10,63.0,50.4,42.1,44.9,35.3,30.2,82,58,36,30.51,30.37,7,0,7,0.00
2013-1-11,45.7,42.7,39.6,40.7,37.1,31.7,91,81,58,30.41,30.08,8,0,8,0.02
2013-1-12,77.4,56.6,41.7,60.6,49.9,39.3,92,80,54,30.12,30.05,5,0,5,0.00
2013-1-13,76.3,62.1,54.7,61.4,56.0,52.4,94,81,58,30.08,29.96,14,0,14,0.00
2013-1-14,61.7,56.6,46.9,58.5,53.6,44.4,92,90,83,30.21,29.99,15,1,15,0.92
2013-1-15,46.9,41.4,37.6,44.4,39.1,35.5,92,92,91,30.24,30.05,12,2,12,2.61
2013-1-16,47.3,42.0,37.2,44.7,39.8,35.1,93,92,89,30.08,29.90,7,0,7,0.49
2013-1-17,46.6,39.5,32.9,44.7,37.1,30.7,93,91,86,30.10,29.94,13,1,13,1.02
2013-1-18,54.1,37.1,28.9,33.8,27.3,22.2,92,70,41,30.45,30.08,10,0,10,0.37
2013-1-19,60.6,40.2,26.4,36.3,27.8,22.0,83,63,36,30.39,30.03,9,0,9,0.04
2013-1-20,62.4,46.5,35.2,35.9,28.5,21.1,69,50,34,30.04,29.94,18,2,18,0.00
2013-1-21,64.8,42.9,29.1,34.1,21.0,8.0,67,43,28,30.03,29.81,23,2,23,0.00
2013-1-22,41.4,27.9,20.5,8.3,2.6,-2.3,43,34,22,30.21,29.93,18,3,18,0.00
2013-1-23,40.3,27.8,17.8,16.6,7.2,-1.5,60,42,24,30.28,29.97,14,2,14,0.00
2013-1-24,42.4,29.9,18.9,18.8,9.9,2.0,65,44,25,30.45,29.92,26,4,26,0.00
2013-1-25,26.2,21.4,17.8,21.5,12.3,3.5,82,68,50,30.43,29.99,10,0,10,0.00
2013-1-26,54.3,34.2,24.6,30.9,23.1,17.8,84,66,39,30.36,29.98,14,1,14,0.10
2013-1-27,37.0,29.8,21.4,25.2,20.9,14.7,78,69,61,30.52,30.34,9,0,9,0.00
2013-1-28,64.8,43.8,31.8,45.5,35.5,25.1,89,74,46,30.39,30.12,12,0,12,0.14
2013-1-29,82.0,57.9,42.4,53.9,45.6,37.6,85,67,35,30.14,29.97,8,1,8,0.00
2013-1-30,66.0,61.1,50.9,60.9,56.7,47.0,93,85,79,29.99,29.32,12,3,12,1.61
2013-1-31,50.9,39.6,29.1,47.3,25.8,17.3,88,59,39,29.91,29.37,32,5,32,0.04
2013-2-1,44.6,30.4,19.4,28.9,12.6,4.0,81,49,29,30.31,29.75,32,4,32,0.00
2013-2-2,38.1,28.0,16.3,21.7,13.1,4.2,73,54,39,30.30,29.95,9,0,9,0.00
2013-2-3,46.9,35.5,30.7,29.7,22.9,17.6,75,61,46,29.95,29.79,30,2,30,0.00
2013-2-4,43.0,33.4,24.6,25.0,18.6,12.5,63,55,43,30.08,29.88,17,1,17,0.00
2013-2-5,62.4,45.6,34.9,39.7,30.1,23.8,65,55,37,29.91,29.83,22,2,22,0.00
2013-2-6,69.3,49.4,37.2,35.3,29.1,22.1,67,48,25,30.25,29.90,12,1,12,0.00
2013-2-7,41.9,36.6,33.4,32.0,28.0,21.8,85,71,55,30.33,30.05,10,1,10,0.22
2013-2-8,63.0,41.9,33.4,45.3,32.5,23.8,90,71,40,30.05,29.78,29,3,29,0.35
2013-2-9,65.8,42.5,30.0,26.4,19.6,12.8,62,42,20,30.30,29.99,22,3,22,0.00
2013-2-10,56.1,38.2,25.3,33.8,20.7,12.7,78,51,27,30.42,30.15,10,1,10,0.06
2013-2-11,62.2,49.0,37.2,53.3,40.0,29.3,89,73,42,30.15,29.84,15,1,15,0.12
2013-2-12,67.6,51.2,42.3,32.8,25.2,21.3,49,37,23,30.03,29.88,18,2,18,0.00
2013-2-13,47.8,43.3,37.0,41.5,36.9,26.4,90,79,43,29.90,29.59,15,1,15,0.08
2013-2-14,64.8,45.0,31.1,35.7,28.6,23.3,77,55,29,30.02,29.76,10,0,10,0.00
2013-2-15,66.0,46.5,31.6,40.0,31.1,24.6,77,57,33,30.03,29.86,19,2,19,0.00
2013-2-16,43.5,36.2,26.2,27.9,21.2,12.4,64,54,39,29.96,29.80,19,3,19,0.00
2013-2-17,45.7,29.2,20.7,14.9,8.8,4.3,70,44,25,30.18,29.86,24,3,24,0.00
2013-2-18,61.9,39.2,19.9,25.8,16.1,5.3,58,41,24,30.31,30.09,12,0,12,0.00
2013-2-19,55.9,42.4,34.9,41.1,27.0,-8.3,83,56,29,30.12,29.76,25,2,25,0.04
2013-2-20,57.6,40.1,29.5,19.4,12.9,8.4,44,34,18,30.11,29.91,18,2,18,0.00
2013-2-21,66.0,42.9,26.1,24.6,17.1,10.8,55,37,18,30.22,30.06,12,1,12,0.00
2013-2-22,39.7,35.5,30.7,30.0,25.4,17.3,82,67,41,30.29,30.08,8,0,8,0.04
2013-2-23,54.7,41.5,33.6,41.7,35.2,29.1,87,78,61,30.10,29.77,7,0,7,0.04
2013-2-24,67.3,49.0,37.2,37.9,30.0,19.0,90,53,23,30.03,29.74,20,2,20,0.00
2013-2-25,49.8,36.4,28.8,25.8,21.2,17.8,71,55,37,30.18,30.02,8,0,8,0.00
2013-2-26,39.4,34.3,29.5,37.0,28.7,18.6,91,80,63,30.12,29.58,15,2,15,1.28
2013-2-27,63.9,46.0,35.4,38.8,34.6,30.4,91,67,39,29.73,29.55,16,2,16,0.00
2013-2-28,49.6,40.4,36.3,30.8,26.3,23.0,70,58,41,29.80,29.65,21,3,21,0.00
2013-3-1,43.2,38.5,35.4,28.0,25.5,22.4,69,60,52,29.87,29.76,18,2,18,0.00
2013-3-2,42.4,35.9,30.9,25.1,21.6,16.9,66,56,46,29.88,29.79,19,3,19,0.00
2013-3-3,50.7,34.0,25.9,24.8,17.5,11.7,64,52,34,29.93,29.84,21,4,21,0.00
2013-3-4,62.4,40.2,24.8,22.2,14.5,8.9,60,38,19,30.04,29.92,18,3,18,0.00
2013-3-5,51.4,40.5,34.7,35.1,27.7,13.1,88,62,38,30.02,29.58,10,1,10,0.77
2013-3-6,53.2,39.1,32.9,34.1,29.2,26.1,89,69,46,30.03,29.56,27,5,27,0.12
2013-3-7,55.8,41.1,35.2,32.4,26.9,22.7,68,58,38,30.20,30.01,22,5,22,0.00
2013-3-8,62.6,45.3,35.4,29.4,25.3,21.9,62,47,28,30.27,30.14,25,5,25,0.00
2013-3-9,75.0,50.1,30.6,36.8,27.5,21.9,72,45,23,30.31,30.20,11,1,11,0.00
2013-3-10,71.4,51.7,33.3,36.9,29.8,22.4,69,45,26,30.27,30.13,8,0,12,0.00
2013-3-11,59.5,51.3,40.8,50.0,36.1,22.2,76,57,39,30.16,29.85,10,1,10,0.00
2013-3-12,70.3,56.5,40.6,53.9,43.5,27.4,93,65,34,29.96,29.69,16,2,20,0.67
2013-3-13,55.2,41.7,31.6,34.2,24.7,14.5,72,52,33,30.11,29.93,25,3,25,0.00
2013-3-14,61.5,41.3,28.2,25.2,17.6,13.7,57,40,21,30.18,30.06,22,4,22,0.00
2013-3-15,64.9,48.2,31.6,34.7,25.1,13.2,51,41,29,30.11,29.82,11,1,11,0.00
2013-3-16,84.4,60.9,43.5,50.5,42.2,31.6,80,53,28,29.83,29.57,27,2,27,0.00
2013-3-17,59.0,44.3,36.3,47.5,38.9,33.1,89,82,65,30.16,29.80,13,1,13,0.12
2013-3-18,37.0,34.9,32.7,33.8,32.0,29.8,91,89,88,30.18,29.85,0,0,8,0.33
2013-3-19,67.6,48.6,33.6,42.9,27.0,5.0,93,53,18,30.00,29.74,24,4,25,0.00
2013-3-20,66.0,47.0,33.3,22.5,14.2,5.2,40,27,17,30.04,29.74,19,3,19,0.00
2013-3-21,47.1,36.0,25.7,24.6,15.3,9.1,58,43,28,29.94,29.73,20,4,20,0.00
2013-3-22,63.7,39.5,21.4,23.5,14.0,7.8,57,38,18,30.01,29.88,15,2,15,0.00
2013-3-23,66.6,44.9,31.3,34.5,22.5,12.5,61,42,28,30.01,29.86,10,0,10,0.00
2013-3-24,40.8,35.5,31.8,30.2,26.8,22.2,88,72,52,29.91,29.56,14,1,14,0.10
2013-3-25,48.0,36.4,30.6,35.4,27.1,22.1,88,71,47,29.74,29.50,18,2,18,0.55
2013-3-26,50.2,39.9,34.2,32.7,25.8,22.8,65,57,43,30.07,29.73,17,3,17,0.00
2013-3-27,55.2,40.6,31.6,31.1,24.6,21.3,69,54,35,30.18,30.06,21,3,21,0.00
2013-3-28,62.4,44.5,32.9,31.3,24.7,19.9,70,48,28,30.23,30.14,20,4,20,0.00
2013-3-29,71.4,48.1,30.0,33.2,25.4,20.0,69,44,22,30.28,30.11,13,1,13,0.00
2013-3-30,75.6,52.6,34.9,37.6,28.4,22.6,69,42,21,30.21,30.03,11,0,11,0.00
2013-3-31,63.9,52.4,43.0,52.8,41.5,26.6,86,68,41,30.03,29.74,8,0,8,0.26
2013-4-1,69.6,54.4,41.7,46.2,38.9,27.5,77,58,36,29.97,29.79,21,3,21,0.00
2013-4-2,66.0,47.3,33.1,28.6,22.8,15.9,63,41,18,30.13,29.97,22,2,22,0.00
2013-4-3,70.5,48.6,31.8,26.2,18.5,12.9,51,32,17,30.29,30.10,14,2,14,0.00
2013-4-4,47.5,37.9,32.7,30.5,21.3,12.7,86,54,33,30.35,29.96,12,1,12,0.57
2013-4-5,73.8,50.2,33.6,47.6,34.7,28.2,90,62,27,30.00,29.87,16,1,16,0.47
2013-4-6,71.4,52.8,37.0,39.4,30.3,25.2,70,44,25,30.24,30.00,12,1,12,0.00
2013-4-7,76.6,56.9,39.0,46.0,38.2,24.7,77,52,33,30.20,30.01,12,1,14,0.00
2013-4-8,87.4,67.1,50.9,52.6,46.4,39.5,71,50,28,30.10,29.97,13,1,13,0.00
2013-4-9,92.8,73.2,57.9,59.9,51.5,47.5,69,49,28,30.13,30.00,11,1,11,0.00
2013-4-10,96.6,77.2,61.3,60.1,54.9,50.7,70,49,27,30.05,29.88,14,1,14,0.00
2013-4-11,88.3,73.7,61.5,60.4,56.3,53.1,76,56,35,29.92,29.71,12,1,12,0.00
2013-4-12,87.3,69.5,58.1,65.6,55.0,37.4,92,64,27,29.76,29.59,18,2,18,1.37
2013-4-13,83.3,63.9,49.3,45.8,36.2,29.5,60,38,20,29.98,29.75,16,2,16,0.00
2013-4-14,86.4,67.7,50.5,46.2,37.9,30.4,57,35,21,30.07,29.96,10,0,10,0.00
2013-4-15,70.0,59.1,53.2,55.3,51.1,44.1,87,75,47,30.21,30.00,13,1,13,0.20
2013-4-16,85.3,66.5,56.3,62.1,56.3,51.8,89,72,44,30.27,30.13,9,0,9,0.00
2013-4-17,89.2,71.1,60.1,63.4,58.4,54.1,83,66,38,30.18,30.08,6,0,8,0.00
2013-4-18,83.5,69.8,59.7,62.7,57.6,53.9,88,67,43,30.14,29.96,11,0,11,0.00
2013-4-19,73.2,65.7,52.7,64.4,59.0,41.0,90,79,65,29.96,29.63,112,1,112,0.73
2013-4-20,74.1,55.7,42.1,41.1,33.5,27.5,65,45,24,30.25,29.83,21,2,21,0.00
2013-4-21,69.6,51.6,39.4,40.1,32.5,26.6,64,49,32,30.48,30.25,16,2,16,0.00
2013-4-22,72.0,52.4,35.1,37.0,33.3,28.3,81,52,23,30.45,30.25,14,2,14,0.00
2013-4-23,77.2,58.9,47.5,50.2,43.1,36.8,71,57,37,30.28,30.05,11,1,11,0.00
2013-4-24,80.1,63.8,48.4,56.7,51.2,44.2,89,66,43,30.08,29.88,13,1,13,0.04
2013-4-25,81.3,59.4,41.5,49.3,34.9,24.6,73,44,15,30.27,30.00,15,2,15,0.00
2013-4-26,79.2,59.3,41.0,42.9,34.6,24.5,65,41,23,30.41,30.26,9,1,9,0.00
2013-4-27,76.3,59.9,49.6,50.2,45.0,35.9,78,59,38,30.33,30.21,7,0,7,0.00
2013-4-28,56.5,53.7,51.6,52.1,50.3,49.1,91,88,78,30.22,30.04,10,0,10,0.10
2013-4-29,69.6,57.6,51.1,59.0,52.7,48.5,92,84,68,30.07,29.96,5,0,5,0.00
2013-4-30,74.7,61.0,53.8,60.7,54.5,50.4,93,80,57,30.20,30.00,10,0,10,0.00
2013-5-1,79.3,61.6,54.3,57.9,51.7,46.1,90,72,43,30.33,30.18,14,2,14,0.00
2013-5-2,77.4,61.6,52.5,55.7,47.4,40.2,75,60,42,30.33,30.23,9,1,9,0.00
2013-5-3,73.6,57.2,45.5,53.2,46.6,41.3,87,69,47,30.29,30.16,17,1,17,0.00
2013-5-4,69.4,54.3,46.0,50.0,44.2,39.9,80,70,49,30.22,30.09,16,2,16,0.00
2013-5-5,58.5,52.5,44.8,50.1,44.0,34.8,88,73,62,30.12,29.99,18,3,18,0.04
2013-5-6,57.9,54.2,51.4,55.3,51.7,48.8,93,91,86,30.02,29.84,20,3,20,1.61
2013-5-7,68.4,57.6,49.8,61.2,54.0,47.0,94,88,68,29.92,29.83,14,1,14,0.37
2013-5-8,62.4,54.0,49.8,57.8,51.2,47.6,93,90,82,29.98,29.90,2,0,2,0.45
2013-5-9,87.6,66.1,48.0,62.8,54.0,46.4,94,69,35,30.03,29.95,8,0,8,0.00
2013-5-10,89.1,70.7,55.0,64.7,57.4,50.1,86,65,40,30.03,29.89,11,0,11,0.00
2013-5-11,84.0,69.1,62.4,64.3,59.6,55.8,88,73,47,29.92,29.74,11,0,11,0.06
2013-5-12,73.6,61.4,47.3,55.8,42.3,31.8,80,52,29,30.03,29.79,14,1,14,0.00
2013-5-13,70.3,54.2,38.5,40.3,34.0,29.6,81,50,26,30.16,30.01,11,0,11,0.00
2013-5-14,77.9,57.3,36.3,48.1,40.0,30.7,83,56,31,30.20,29.98,9,0,9,0.00
2013-5-15,98.8,73.2,52.5,68.7,54.7,42.2,75,55,29,30.00,29.83,11,0,11,0.00
2013-5-16,89.2,77.0,66.6,64.0,56.6,50.6,65,50,38,29.98,29.87,14,1,14,0.00
2013-5-17,91.8,73.2,59.5,67.6,60.5,53.4,85,66,40,30.09,29.96,9,0,9,0.47
2013-5-18,69.6,65.9,62.8,63.8,61.7,59.2,92,86,76,30.16,30.07,10,0,10,0.04
2013-5-19,74.1,66.1,61.9,69.3,63.6,59.8,94,92,84,30.12,30.02,8,0,8,1.63
2013-5-20,81.3,69.4,65.1,71.5,65.7,62.2,94,88,65,30.10,29.98,11,0,11,0.71
2013-5-21,96.6,75.6,61.9,75.2,66.6,59.8,94,77,42,30.02,29.90,6,0,6,0.00
2013-5-22,91.6,73.6,64.2,73.9,66.1,61.2,92,79,54,29.97,29.86,18,0,18,1.43
2013-5-23,84.9,69.4,62.2,71.5,64.3,59.3,93,85,61,29.92,29.77,17,0,17,0.63
2013-5-24,70.5,61.6,49.3,59.8,47.5,34.6,91,63,36,30.16,29.81,20,2,20,0.00
2013-5-25,80.1,59.1,43.9,42.6,35.8,31.8,70,45,21,30.23,30.11,14,1,14,0.00
2013-5-26,85.1,65.1,49.3,49.5,43.1,36.5,75,48,25,30.23,30.11,9,0,9,0.00
2013-5-27,84.4,65.4,49.6,61.5,50.4,40.7,77,60,41,30.26,30.11,7,0,7,0.00
2013-5-28,91.0,72.7,55.6,69.8,60.5,51.1,88,68,44,30.18,30.08,8,0,8,0.00
2013-5-29,94.8,77.3,62.2,70.3,63.7,58.3,89,66,40,30.18,30.10,8,0,8,0.00
2013-5-30,95.0,76.6,60.6,70.2,63.1,56.7,88,66,41,30.22,30.13,8,0,8,0.00
2013-5-31,93.6,76.4,61.0,71.0,63.3,56.4,87,66,44,30.18,30.06,8,0,8,0.00
2013-6-1,93.6,77.5,64.2,72.2,64.2,58.4,89,66,41,30.08,29.97,11,0,11,0.00
2013-6-2,81.3,71.3,66.9,71.0,65.0,59.7,92,81,68,29.99,29.90,17,0,17,0.57
2013-6-3,87.4,74.2,65.8,70.7,65.3,58.3,93,76,52,29.97,29.84,11,0,11,0.10
2013-6-4,83.1,71.0,59.0,67.3,60.9,54.5,87,71,55,30.10,29.96,10,0,10,0.00
2013-6-5,78.4,67.4,58.5,66.2,60.9,54.7,89,80,65,30.14,30.02,0,0,0,0.00
2013-6-6,67.3,63.9,61.2,64.4,61.4,58.8,93,92,89,30.03,29.81,6,0,6,2.14
2013-6-7,76.3,68.6,64.9,70.6,65.6,60.8,94,90,81,29.83,29.61,6,0,7,0.29
2013-6-8,90.5,72.2,61.2,67.6,62.5,58.1,92,74,45,30.08,29.80,7,0,7,0.10
2013-6-9,90.0,75.1,63.7,76.5,67.3,60.7,91,78,55,30.14,30.03,100,0,100,0.43
2013-6-10,86.7,72.8,66.9,74.0,67.8,63.6,94,85,64,30.07,29.83,15,0,15,0.29
2013-6-11,88.7,75.1,64.6,67.8,63.9,61.3,93,70,48,29.94,29.85,0,0,0,0.08
2013-6-12,98.4,81.0,66.4,76.9,68.4,60.8,84,67,45,29.95,29.84,0,0,0,0.00
2013-6-13,96.6,77.4,66.6,76.1,66.9,54.4,84,71,39,29.85,29.59,19,1,19,0.24
2013-6-14,86.9,70.9,59.2,63.5,56.7,51.4,82,62,42,30.01,29.75,10,0,10,0.00
2013-6-15,92.5,73.6,56.5,65.1,58.7,52.3,88,63,35,30.11,30.00,8,0,8,0.00
2013-6-16,90.0,75.4,62.8,73.5,65.2,57.9,87,72,55,30.06,29.95,12,0,12,0.71
2013-6-17,93.4,75.0,67.1,75.2,68.4,63.6,92,81,50,30.02,29.90,12,0,12,0.29
2013-6-18,78.6,71.7,65.1,72.8,67.6,61.3,93,87,74,29.95,29.79,9,0,9,0.39
2013-6-19,85.3,71.4,60.4,70.0,64.0,58.1,93,79,56,30.13,29.90,8,0,8,0.00
2013-6-20,85.6,72.1,65.3,69.4,64.8,61.9,92,79,55,30.25,30.12,8,0,8,0.00
2013-6-21,91.8,73.9,59.4,68.1,61.3,55.4,89,67,43,30.27,30.18,7,0,7,0.00
2013-6-22,93.0,73.5,59.5,71.7,64.0,55.3,91,74,48,30.25,30.11,8,0,8,0.00
2013-6-23,96.6,79.6,67.1,74.0,68.5,63.9,91,71,43,30.20,30.08,5,0,5,0.00
2013-6-24,95.9,78.1,67.5,75.0,69.4,64.0,91,76,47,30.17,30.05,5,0,5,0.00
2013-6-25,93.9,78.8,66.2,75.6,69.4,63.6,92,74,50,30.09,29.97,12,0,12,0.00
2013-6-26,96.4,75.5,67.8,76.2,67.8,64.3,92,79,50,30.00,29.88,13,0,13,0.12
2013-6-27,88.3,73.5,65.3,75.7,67.2,62.7,93,81,60,29.91,29.70,8,0,8,0.02
2013-6-28,93.6,80.3,68.5,74.2,68.1,63.6,88,68,47,29.74,29.54,9,0,9,0.00
2013-6-29,91.2,76.9,66.4,70.8,65.9,60.5,83,70,47,29.71,29.59,4,0,4,0.00
2013-6-30,92.3,75.4,65.1,75.5,67.6,61.5,90,78,54,29.85,29.70,6,0,6,0.02
2013-7-1,87.6,74.9,68.2,74.2,68.8,65.7,93,82,62,29.97,29.82,5,0,5,0.10
2013-7-2,77.9,72.4,70.0,72.3,69.1,67.3,94,89,81,30.16,29.96,0,0,0,1.12
2013-7-3,80.1,72.8,69.4,73.9,70.3,67.6,95,92,79,30.22,30.10,0,0,0,0.47
2013-7-4,90.9,76.6,70.0,78.2,71.8,67.2,95,86,61,30.25,30.16,10,0,10,0.26
2013-7-5,91.4,77.9,69.3,77.1,71.9,67.1,95,83,62,30.24,30.15,8,0,8,0.04
2013-7-6,91.8,78.2,68.7,74.7,70.7,66.6,93,79,55,30.22,30.10,7,0,84,0.24
2013-7-7,89.2,75.5,68.2,76.4,70.4,66.1,94,85,64,30.16,30.05,8,0,8,0.29
2013-7-8,92.3,77.3,66.2,73.3,68.9,63.9,94,77,48,30.16,30.07,6,0,6,0.49
2013-7-9,96.1,80.0,70.3,76.4,71.4,67.3,91,76,51,30.13,30.02,3,0,3,0.00
2013-7-10,93.6,76.5,69.6,78.5,71.3,66.7,93,85,60,30.07,29.93,66,0,66,0.51
2013-7-11,89.8,75.6,69.4,75.6,70.5,67.4,94,85,61,29.95,29.86,0,0,0,0.22
2013-7-12,81.5,71.5,66.9,70.2,65.9,63.7,93,83,66,30.05,29.88,11,0,11,0.00
2013-7-13,84.0,72.5,67.1,73.5,67.8,63.5,92,86,69,30.19,30.03,8,0,8,0.10
2013-7-14,91.8,78.5,70.2,74.9,70.7,68.0,94,79,55,30.32,30.19,11,0,11,0.04
2013-7-15,98.1,80.3,68.2,76.2,70.3,65.8,94,74,43,30.33,30.23,5,0,5,0.00
2013-7-16,102.4,81.2,67.1,77.3,70.3,64.4,92,72,41,30.28,30.18,8,0,8,0.00
2013-7-17,99.3,81.0,72.3,79.0,72.6,67.7,91,77,49,30.24,30.12,11,0,11,0.20
2013-7-18,101.1,82.9,70.5,79.4,73.3,68.4,93,75,42,30.16,30.03,0,0,0,0.00
2013-7-19,95.7,80.5,70.9,80.1,73.1,68.0,92,79,57,30.08,29.95,14,0,14,0.26
2013-7-20,95.7,79.7,72.3,77.6,72.3,69.5,92,79,48,29.98,29.89,10,0,10,0.14
2013-7-21,93.4,77.8,68.7,78.5,71.4,66.3,93,81,56,29.97,29.91,10,0,10,0.67
2013-7-22,93.0,77.2,70.3,77.1,71.6,68.2,94,84,58,29.95,29.79,8,0,8,0.04
2013-7-23,95.4,80.2,69.4,74.4,69.9,65.6,92,73,47,29.81,29.72,10,0,10,0.04
2013-7-24,96.4,79.8,68.4,72.9,68.0,64.5,89,69,41,29.90,29.73,8,0,12,0.00
2013-7-25,89.6,75.1,65.8,67.7,64.2,60.8,91,71,46,30.04,29.88,10,0,10,0.04
2013-7-26,90.1,75.0,65.3,71.5,65.4,61.3,91,74,51,30.10,30.00,6,0,6,0.00
2013-7-27,72.5,69.9,67.6,69.0,66.6,64.0,93,89,83,30.04,29.92,3,0,3,0.37
2013-7-28,92.1,74.9,65.7,72.5,67.8,63.6,94,81,50,29.99,29.90,7,0,7,0.45
2013-7-29,93.0,74.1,61.9,66.9,61.5,57.5,91,68,37,30.18,29.99,6,0,6,0.00
2013-7-30,90.3,71.7,57.9,67.0,60.7,53.8,88,70,43,30.23,30.13,6,0,6,0.00
2013-7-31,76.8,70.1,65.8,70.0,65.3,62.6,91,85,76,30.15,29.99,3,0,3,0.02
2013-8-1,93.6,75.7,65.5,74.0,67.5,63.4,93,78,47,30.00,29.84,14,0,14,0.14
2013-8-2,93.4,76.7,64.2,68.8,64.1,60.3,88,68,38,30.02,29.92,6,0,6,0.00
2013-8-3,94.5,75.6,64.2,72.6,66.2,60.2,89,74,44,30.00,29.91,8,0,8,0.04
2013-8-4,93.0,76.8,67.1,67.7,64.2,57.5,91,68,39,30.05,29.91,9,0,9,0.04
2013-8-5,84.9,71.6,59.7,66.8,61.4,55.2,87,71,52,30.10,29.99,6,0,8,0.00
2013-8-6,91.2,75.7,66.9,73.6,67.6,62.8,90,77,55,30.03,29.96,8,0,8,0.00
2013-8-7,84.6,73.4,67.1,75.8,69.0,64.4,92,86,73,30.07,30.01,6,0,6,0.10
2013-8-8,89.6,75.1,69.3,76.9,70.7,66.7,94,87,66,30.05,29.97,8,0,8,0.04
2013-8-9,93.9,80.0,70.5,78.9,72.6,68.7,95,79,57,30.02,29.94,9,0,9,0.00
2013-8-10,95.0,80.2,71.1,79.8,72.2,67.8,90,78,54,30.08,30.00,2,0,2,0.00
2013-8-11,93.0,78.5,71.4,77.1,72.1,68.3,92,82,58,30.11,30.00,0,0,0,1.10
2013-8-12,96.4,79.2,68.0,76.2,70.9,66.0,94,78,49,30.05,29.93,100,0,100,0.26
2013-8-13,88.5,75.2,69.3,75.1,69.2,63.6,93,82,59,29.95,29.79,0,0,0,0.12
2013-8-14,88.3,72.6,62.4,63.7,58.9,53.6,86,65,38,30.11,29.85,0,0,0,0.00
2013-8-15,85.3,67.6,54.0,60.6,55.2,50.0,88,67,40,30.16,30.07,0,0,0,0.00
2013-8-16,81.0,65.6,52.3,62.4,56.1,48.6,90,73,51,30.18,30.10,0,0,0,0.00
2013-8-17,70.5,62.5,55.9,61.8,57.7,52.6,92,84,68,30.22,30.16,0,0,0,0.94
2013-8-18,74.7,66.5,62.6,69.5,63.0,60.2,93,89,77,30.21,30.12,8,0,8,0.98
2013-8-19,80.6,68.6,63.1,71.6,65.0,61.3,94,89,73,30.19,30.07,0,0,0,0.24
2013-8-20,90.1,73.4,63.5,74.7,67.7,61.4,95,84,59,30.18,30.09,0,0,0,0.00
2013-8-21,85.8,74.7,65.8,74.7,69.4,63.8,94,84,67,30.20,30.07,11,0,11,0.06
2013-8-22,93.7,76.4,63.7,75.6,68.7,61.6,93,78,53,30.13,29.98,0,0,11,0.12
2013-8-23,93.6,73.6,62.2,74.2,66.8,58.5,92,80,52,30.12,29.94,17,0,17,0.06
2013-8-24,90.7,71.5,58.1,65.9,60.0,55.6,93,71,36,30.30,30.11,10,0,10,0.00
2013-8-25,90.9,71.0,57.0,67.3,59.8,53.9,91,71,40,30.38,30.26,5,0,5,0.00
2013-8-26,95.5,72.8,55.9,68.6,61.4,52.6,90,71,39,30.31,30.08,0,0,0,0.00
2013-8-27,94.3,76.8,64.6,73.5,67.5,61.1,91,75,49,30.08,29.94,6,0,6,0.00
2013-8-28,81.3,73.9,67.3,76.4,69.9,63.9,91,87,77,29.99,29.85,0,0,0,0.10
2013-8-29,94.5,78.4,69.6,76.2,70.2,66.5,91,77,54,30.03,29.84,7,0,7,0.00
2013-8-30,94.6,76.8,65.8,74.4,68.6,63.1,93,78,51,30.06,29.91,0,0,0,0.00
2013-8-31,94.5,75.3,66.0,77.8,68.6,63.0,92,81,58,29.94,29.82,18,0,18,1.31
2013-9-1,92.5,74.9,64.6,77.2,69.3,62.8,94,84,60,29.89,29.77,0,0,0,0.02
2013-9-2,95.7,78.2,66.0,74.4,69.4,63.9,94,76,48,29.88,29.78,0,0,0,0.00
2013-9-3,96.6,78.9,67.6,74.2,67.9,58.8,90,71,46,29.97,29.79,0,0,0,0.00
2013-9-4,92.1,72.7,58.3,67.6,61.5,54.7,89,70,41,30.10,29.96,0,0,0,0.00
2013-9-5,97.5,74.2,57.4,69.1,60.8,54.4,91,67,33,30.11,30.02,0,0,0,0.00
2013-9-6,88.9,70.5,59.4,63.0,58.2,54.0,88,68,38,30.21,30.09,0,0,0,0.00
2013-9-7,89.8,70.4,55.6,69.0,60.9,51.9,90,74,50,30.13,29.95,0,0,0,0.00
2013-9-8,95.2,74.2,59.5,73.1,64.4,55.7,89,74,44,29.99,29.90,0,0,0,0.00
2013-9-9,87.6,72.7,66.2,71.0,65.8,63.0,91,80,57,30.16,29.98,6,0,6,0.00
2013-9-10,96.4,77.1,64.9,75.9,69.1,62.6,93,78,48,30.21,30.12,0,0,0,0.00
2013-9-11,96.8,78.9,66.9,76.7,70.1,64.5,93,77,48,30.18,30.04,3,0,3,0.00
2013-9-12,96.6,78.3,67.6,75.3,69.2,63.7,91,75,49,30.05,29.80,5,0,5,0.00
2013-9-13,91.9,73.6,58.5,64.9,57.0,46.7,83,59,31,29.93,29.77,7,0,7,0.00
2013-9-14,85.8,64.2,50.7,56.5,50.3,45.8,87,64,35,30.13,29.92,5,0,5,0.00
2013-9-15,87.6,64.7,47.8,63.0,54.6,44.8,90,72,43,30.23,30.08,2,0,2,0.00
2013-9-16,79.7,67.1,58.6,68.7,59.8,53.3,90,78,60,30.22,30.07,4,0,4,0.00
2013-9-17,80.8,61.6,49.6,58.9,52.2,46.7,91,73,40,30.35,30.20,7,0,7,0.00
2013-9-18,79.3,60.4,48.9,58.6,52.3,45.8,90,76,48,30.31,30.15,6,0,6,0.00
2013-9-19,79.0,66.4,59.9,65.9,60.1,55.8,89,81,63,30.17,30.05,4,0,4,0.00
2013-9-20,68.7,65.7,62.8,65.3,63.0,60.1,93,91,87,30.06,29.94,4,0,4,0.37
2013-9-21,68.5,64.9,59.2,66.7,63.1,57.2,95,94,91,29.95,29.69,12,0,14,0.90
2013-9-22,86.4,66.6,53.2,63.4,57.0,51.1,94,74,43,29.92,29.74,9,0,9,0.00
2013-9-23,81.3,63.4,54.3,60.1,53.8,50.0,89,73,47,30.06,29.92,6,0,6,0.00
2013-9-24,86.5,65.5,51.8,64.6,56.3,48.5,90,74,47,30.08,29.92,6,0,6,0.00
2013-9-25,70.3,61.8,54.0,61.7,57.0,50.9,91,85,73,29.95,29.86,3,0,3,0.00
2013-9-26,84.4,66.6,57.2,63.1,57.0,51.6,93,74,38,30.05,29.89,9,0,9,0.00
2013-9-27,86.7,64.9,50.7,60.7,53.9,47.6,91,70,39,30.19,30.04,7,0,7,0.00
2013-9-28,75.6,61.9,52.0,58.7,53.6,47.6,89,75,50,30.26,30.17,8,0,8,0.00
2013-9-29,80.4,62.0,50.4,58.3,51.8,47.1,91,72,44,30.18,30.03,6,0,6,0.00
2013-9-30,89.2,64.8,50.7,60.4,53.9,47.3,91,71,36,30.08,29.96,4,0,4,0.00
2013-10-1,91.2,68.7,53.4,65.4,57.8,50.3,90,71,40,30.10,30.01,7,0,7,0.00
2013-10-2,95.4,70.6,53.4,67.2,58.6,50.3,90,69,35,30.12,30.02,6,0,6,0.00
2013-10-3,91.2,70.9,57.0,67.6,61.1,53.8,89,73,42,30.12,30.03,5,0,5,0.00
2013-10-4,97.3,73.7,58.3,69.8,62.4,55.2,91,71,37,30.12,30.03,6,0,6,0.00
2013-10-5,96.6,75.3,60.3,70.4,63.6,57.0,91,70,39,30.11,30.01,3,0,3,0.00
2013-10-6,89.2,72.3,59.7,69.2,62.8,56.8,91,74,48,30.03,29.89,5,0,5,0.00
2013-10-7,76.3,66.1,53.2,67.0,59.8,46.6,93,81,59,30.04,29.77,10,0,10,0.02
2013-10-8,78.1,59.5,47.7,52.5,46.9,43.7,88,66,37,30.23,30.02,11,1,11,0.00
2013-10-9,73.9,57.5,49.8,53.8,47.9,44.9,85,71,45,30.23,30.13,8,1,9,0.00
2013-10-10,75.4,58.6,50.7,61.3,52.9,47.0,90,82,61,30.13,29.95,15,1,15,0.31
2013-10-11,79.9,65.8,58.3,63.6,57.8,53.8,86,76,56,29.97,29.89,10,0,10,0.00
2013-10-12,69.3,63.1,59.9,63.7,59.0,55.8,92,87,81,30.10,29.96,9,0,9,0.10
2013-10-13,65.8,61.8,58.6,62.5,59.0,56.2,93,91,87,30.24,30.09,10,1,10,0.29
2013-10-14,58.6,56.5,0.0,56.3,56.0,55.7,93,93,92,30.24,30.22,10,2,10,0.10
2013-10-15,79.2,61.3,49.3,60.1,53.6,47.3,93,78,47,30.22,30.06,0,0,0,0.00
2013-10-16,77.4,64.4,55.6,60.4,56.8,52.4,89,77,56,30.07,29.93,0,0,0,0.00
2013-10-17,67.8,64.4,59.0,62.6,59.9,52.1,91,86,78,29.93,29.77,8,0,8,0.02
2013-10-18,78.1,59.5,47.1,52.0,47.1,41.6,83,66,37,30.03,29.87,13,0,13,0.00
2013-10-19,60.1,53.6,48.4,56.2,49.6,44.9,91,86,76,29.97,29.77,9,0,9,0.00
2013-10-20,76.5,54.4,40.1,45.9,39.8,34.7,83,61,31,30.08,29.90,10,1,10,0.00
2013-10-21,78.1,54.5,36.5,52.8,43.7,33.1,89,70,41,30.13,29.94,1,0,1,0.00
2013-10-22,75.4,59.0,50.2,52.1,48.4,45.8,89,70,41,29.95,29.77,0,0,0,0.00
2013-10-23,66.6,53.2,41.2,51.9,43.0,30.0,90,71,39,29.97,29.68,23,2,23,0.10
2013-10-24,58.1,44.3,35.8,35.6,31.3,29.0,77,61,41,30.14,29.96,16,2,16,0.00
2013-10-25,63.9,43.6,32.5,34.3,29.1,24.6,84,60,30,30.31,30.13,18,1,18,0.00
2013-10-26,66.4,45.3,26.4,36.2,30.1,22.2,85,59,31,30.30,29.97,13,0,13,0.00
2013-10-27,77.0,55.3,41.2,44.2,38.3,33.4,75,55,29,30.08,29.98,11,0,11,0.00
2013-10-28,72.3,53.8,39.0,52.1,45.0,34.6,88,73,47,30.22,30.07,8,0,8,0.00
2013-10-29,75.0,60.7,52.0,54.9,50.8,48.5,89,72,46,30.32,30.21,6,0,9,0.00
2013-10-30,82.0,62.5,53.8,63.3,54.8,49.2,90,77,51,30.25,30.10,10,0,10,0.06
2013-10-31,69.8,62.8,57.0,58.4,56.2,53.6,90,79,65,30.13,29.79,11,0,11,0.00
2013-11-1,83.5,68.1,60.4,64.0,59.3,50.3,87,74,48,29.80,29.60,15,1,15,0.04
2013-11-2,78.1,59.6,48.0,50.5,40.9,31.8,78,53,28,29.92,29.66,17,1,17,0.00
2013-11-3,71.1,52.0,40.8,40.0,34.7,30.1,72,53,31,30.35,29.92,20,1,20,0.00
2013-11-4,61.0,44.0,32.9,35.3,29.2,26.0,76,57,35,30.53,30.34,13,0,13,0.00
2013-11-5,55.6,46.2,35.4,42.4,34.4,26.7,77,64,48,30.55,30.41,6,0,6,0.00
2013-11-6,78.4,56.9,0.0,54.0,46.6,41.3,84,70,41,30.41,30.06,2,0,6,0.00
2013-11-7,66.0,52.1,39.4,53.9,42.2,27.8,88,70,40,30.11,29.92,17,1,17,0.00
2013-11-8,63.5,44.8,32.2,33.7,26.5,22.3,68,51,27,30.28,30.10,16,1,16,0.00
2013-11-9,62.2,43.2,28.0,33.8,27.4,22.4,81,56,30,30.31,30.07,10,0,10,0.00
2013-11-10,73.2,54.3,40.6,40.1,29.1,23.3,58,40,20,30.23,30.01,25,2,25,0.00
2013-11-11,69.3,47.2,31.3,33.6,26.6,22.6,73,47,24,30.29,30.05,7,0,7,0.00
2013-11-12,56.5,43.9,28.2,37.5,24.3,12.1,54,46,33,30.39,29.95,24,3,24,0.00
2013-11-13,58.5,37.1,24.4,23.3,16.6,11.7,67,46,22,30.48,30.37,12,2,14,0.00
2013-11-14,72.9,44.2,24.1,29.5,19.4,14.0,68,41,15,30.38,30.23,11,0,11,0.00
2013-11-15,66.6,47.8,29.1,45.2,30.7,17.5,83,53,28,30.26,30.13,10,0,10,0.10
2013-11-16,55.2,51.9,48.6,51.2,48.6,44.9,93,88,82,30.24,30.17,2,0,5,0.02
2013-11-17,59.5,55.7,52.9,57.8,53.8,50.9,94,93,92,30.18,29.79,7,0,9,0.06
2013-11-18,73.2,59.8,47.1,58.6,40.4,25.8,94,52,29,29.97,29.75,27,3,27,0.10
2013-11-19,62.4,46.8,37.9,32.6,27.3,24.1,61,48,30,30.29,29.95,21,3,21,0.00
2013-11-20,59.2,43.0,34.2,31.3,26.2,23.8,66,53,31,30.44,30.27,15,2,15,0.00
2013-11-21,51.6,45.0,39.2,40.6,35.4,26.6,78,69,60,30.49,30.35,6,0,6,0.00
2013-11-22,74.8,57.2,46.2,57.1,48.9,40.1,84,75,53,30.36,30.03,13,1,13,0.00
2013-11-23,62.4,50.5,33.8,53.2,34.3,15.2,81,55,31,30.18,30.03,23,3,23,0.00
2013-11-24,47.1,31.0,21.9,16.9,8.8,2.9,52,40,24,30.47,30.18,20,3,20,0.00
2013-11-25,43.2,29.4,18.5,16.7,11.1,5.2,66,47,29,30.48,30.29,8,0,8,0.00
2013-11-26,41.7,35.3,31.8,39.3,31.0,16.7,92,85,47,30.29,29.57,10,1,10,2.08
2013-11-27,43.3,36.0,25.5,40.9,28.4,12.7,91,74,57,30.10,29.50,23,4,23,0.18
2013-11-28,52.7,33.3,23.0,26.0,17.4,12.2,70,53,32,30.39,30.10,13,1,13,0.00
2013-11-29,59.2,37.1,23.2,30.5,21.6,16.0,77,56,30,30.60,30.37,12,1,12,0.00
2013-11-30,49.5,33.4,23.5,27.8,21.3,16.8,76,62,40,30.61,30.30,7,0,7,0.00
2013-12-1,67.1,39.5,21.9,36.3,25.2,17.0,82,60,29,30.31,29.97,0,0,0,0.00
2013-12-2,54.0,41.5,28.8,39.3,31.9,22.5,79,69,55,29.97,29.80,0,0,0,0.00
2013-12-3,64.2,47.7,36.3,45.4,38.9,31.9,86,73,49,29.95,29.82,6,0,6,0.00
2013-12-4,70.2,54.5,46.4,53.7,47.9,41.6,88,79,56,30.04,29.92,5,0,5,0.00
2013-12-5,70.3,60.4,55.2,61.7,56.9,52.3,93,88,73,30.06,29.95,11,0,11,0.02
2013-12-6,73.8,65.6,50.7,64.2,60.7,47.1,94,85,69,30.04,29.85,22,1,22,0.75
2013-12-7,52.9,45.2,39.0,47.1,38.2,31.1,91,77,62,30.43,30.01,14,3,14,0.20
2013-12-8,39.0,32.4,29.8,31.6,27.9,25.3,90,83,70,30.44,30.21,12,2,12,0.04
2013-12-9,47.7,36.2,31.3,43.2,33.7,28.4,93,90,83,30.25,30.00,4,0,4,0.27
2013-12-10,49.8,37.9,29.8,41.2,31.3,17.6,93,78,57,30.23,29.90,20,2,20,0.53
2013-12-11,55.0,37.7,25.5,27.6,20.9,15.5,69,52,33,30.36,30.20,12,1,12,0.00
2013-12-12,49.6,34.9,27.7,21.7,14.6,6.9,62,44,27,30.36,30.22,14,1,14,0.00
2013-12-13,57.4,39.4,27.7,26.0,17.7,8.6,52,42,27,30.30,30.18,9,0,9,0.00
2013-12-14,39.4,36.4,34.7,32.9,29.1,21.5,89,76,50,30.22,29.72,10,1,10,0.43
2013-12-15,56.1,40.0,33.4,37.6,30.5,23.5,91,70,44,29.99,29.66,20,2,20,0.00
2013-12-16,54.9,40.1,33.6,34.7,28.7,24.7,76,64,45,30.09,29.97,14,1,14,0.00
2013-12-17,66.0,44.3,31.6,39.7,32.3,24.2,83,65,36,30.05,29.83,22,1,22,0.08
2013-12-18,52.2,38.3,28.8,26.0,19.7,15.2,64,48,31,30.20,29.98,13,2,13,0.00
2013-12-19,70.0,46.9,30.7,32.1,24.5,9.6,63,43,23,30.19,30.10,9,0,9,0.00
2013-12-20,64.0,50.5,40.5,40.3,33.4,24.1,70,52,41,30.13,30.01,12,0,12,0.00
2013-12-21,67.5,57.5,47.8,58.7,50.2,39.2,87,77,64,30.05,29.92,15,1,15,0.00
2013-12-22,67.8,62.5,57.7,64.0,58.8,55.4,94,88,74,30.04,29.90,15,1,15,0.67
2013-12-23,61.3,52.7,36.3,59.4,47.7,27.8,94,83,69,30.16,29.91,23,3,23,0.86
2013-12-24,46.4,33.4,23.2,29.8,21.3,11.0,80,62,39,30.41,30.15,19,3,19,0.00
2013-12-25,45.3,28.0,17.8,18.6,12.5,9.0,73,54,31,30.47,30.29,8,0,8,0.00
2013-12-26,57.4,35.4,21.0,30.6,19.5,10.2,76,54,32,30.34,30.18,17,1,17,0.00
2013-12-27,60.4,38.8,25.7,30.1,20.1,15.7,67,49,25,30.40,30.29,8,0,8,0.00
2013-12-28,67.8,43.4,27.1,36.5,24.5,16.9,82,50,22,30.33,30.12,7,0,7,0.12
2013-12-29,60.4,45.2,39.7,49.3,39.2,34.4,91,80,65,30.13,29.64,19,2,19,0.86
2013-12-30,47.5,42.3,35.4,37.1,32.9,27.3,75,69,59,30.10,29.86,12,1,12,0.00
2013-12-31,52.5,38.6,31.8,28.8,22.0,16.0,77,53,31,30.29,30.07,19,2,19,0.00
2014-1-1,54.0,36.3,26.1,30.1,22.0,16.6,73,57,32,30.32,30.06,7,0,7,0.00
2014-1-2,41.2,34.5,28.0,35.6,28.6,21.5,88,79,67,30.06,29.57,18,0,18,0.26